TimeMST,TemperatureF,Dew PointF,Humidity,Sea Level PressureIn,VisibilityMPH,Wind Direction,Wind SpeedMPH,Gust SpeedMPH,PrecipitationIn,Events,Conditions,WindDirDegrees,DateUTC
12:51 AM,91.0,66.0,44,29.69,10.0,ESE,4.6,-,N/A,,Partly Cloudy,110,2013-08-28 07:51:00
1:51 AM,91.0,59.0,34,29.68,10.0,East,12.7,-,N/A,,Partly Cloudy,80,2013-08-28 08:51:00
2:51 AM,89.1,60.1,38,29.68,10.0,ESE,9.2,-,N/A,,Partly Cloudy,110,2013-08-28 09:51:00
3:51 AM,88.0,60.1,39,29.69,10.0,SE,8.1,-,N/A,,Clear,130,2013-08-28 10:51:00
4:51 AM,88.0,60.1,39,29.70,10.0,SSE,6.9,-,N/A,,Clear,150,2013-08-28 11:51:00
5:51 AM,87.1,60.1,40,29.72,10.0,ESE,5.8,-,N/A,,Partly Cloudy,110,2013-08-28 12:51:00
6:51 AM,88.0,61.0,40,29.74,10.0,ESE,6.9,-,N/A,,Partly Cloudy,120,2013-08-28 13:51:00
7:51 AM,93.0,59.0,32,29.76,10.0,East,10.4,-,N/A,,Partly Cloudy,90,2013-08-28 14:51:00
8:51 AM,97.0,57.9,27,29.77,10.0,ENE,16.1,-,N/A,,Partly Cloudy,70,2013-08-28 15:51:00
9:51 AM,98.1,60.1,28,29.77,10.0,SE,11.5,-,N/A,,Partly Cloudy,130,2013-08-28 16:51:00
10:51 AM,100.0,59.0,26,29.77,10.0,ESE,13.8,-,N/A,,Partly Cloudy,120,2013-08-28 17:51:00
11:51 AM,102.9,57.9,23,29.75,10.0,SSE,13.8,21.9,N/A,,Partly Cloudy,160,2013-08-28 18:51:00
12:51 PM,105.1,59.0,22,29.74,10.0,SSE,12.7,20.7,N/A,,Partly Cloudy,160,2013-08-28 19:51:00
1:51 PM,105.1,57.9,21,29.72,10.0,South,12.7,25.3,N/A,,Partly Cloudy,170,2013-08-28 20:51:00
2:51 PM,105.1,57.9,21,29.69,10.0,SSE,11.5,-,N/A,,Partly Cloudy,160,2013-08-28 21:51:00
3:51 PM,107.1,57.9,20,29.67,10.0,South,5.8,-,N/A,,Partly Cloudy,190,2013-08-28 22:51:00
4:51 PM,106.0,57.9,21,29.66,10.0,South,9.2,-,N/A,,Scattered Clouds,190,2013-08-28 23:51:00
5:51 PM,102.9,57.9,23,29.68,10.0,ESE,15.0,21.9,N/A,,Mostly Cloudy,110,2013-08-29 00:51:00
6:51 PM,102.0,55.9,22,29.70,10.0,SE,11.5,-,N/A,,Mostly Cloudy,140,2013-08-29 01:51:00
7:22 PM,97.0,63.0,32,29.79,10.0,South,15.0,23.0,N/A,,Mostly Cloudy,170,2013-08-29 02:22:00
7:51 PM,96.1,63.0,33,29.75,10.0,South,16.1,23.0,N/A,,Mostly Cloudy,170,2013-08-29 02:51:00
8:51 PM,91.9,66.0,42,29.81,8.0,WNW,17.3,25.3,N/A,,Overcast,290,2013-08-29 03:51:00
9:04 PM,88.0,68.0,51,29.89,9.0,WNW,19.6,-,N/A,,Overcast,290,2013-08-29 04:04:00
9:45 PM,86.0,68.0,55,29.93,10.0,NNW,11.5,16.1,N/A,Thunderstorm,Thunderstorm,340,2013-08-29 04:45:00
9:51 PM,86.0,66.9,53,29.88,10.0,NNW,9.2,16.1,N/A,Thunderstorm,Thunderstorm,330,2013-08-29 04:51:00
10:48 PM,86.0,66.2,51,29.92,10.0,West,12.7,-,N/A,,Mostly Cloudy,260,2013-08-29 05:48:00
10:51 PM,86.0,66.0,51,29.86,10.0,WSW,10.4,-,N/A,,Mostly Cloudy,250,2013-08-29 05:51:00
11:51 PM,82.9,68.0,60,29.87,10.0,WSW,9.2,-,N/A,,Mostly Cloudy,250,2013-08-29 06:51:00